Stations météo

réclame
Mon MeteoGroup
Kahler Asten, Allemagne (10427): Température de l'air & dewpoint: 03.12.2019 21:00:00 - 09.12.2019 21:00:00 (CET)Kahler Asten, Allemagne (10427): Température de l'air 5cm & Température de l'air -5cm: 03.12.2019 21:00:00 - 09.12.2019 21:00:00 (CET)Kahler Asten, Allemagne (10427): Température de l'air -20cm & Température de l'air -100cm: 03.12.2019 21:00:00 - 09.12.2019 21:00:00 (CET)Kahler Asten, Allemagne (10427): Vitesse du vent & gusts: 03.12.2019 21:00:00 - 09.12.2019 21:00:00 (CET)Kahler Asten, Allemagne (10427): Direction du vent: 03.12.2019 21:00:00 - 09.12.2019 21:00:00 (CET)Kahler Asten, Allemagne (10427): visibility: 03.12.2019 21:00:00 - 09.12.2019 21:00:00 (CET)Kahler Asten, Allemagne (10427): Ensoleillement: 03.12.2019 21:00:00 - 09.12.2019 21:00:00 (CET)Kahler Asten, Allemagne (10427): Quantités de précipitations: 03.12.2019 21:00:00 - 09.12.2019 21:00:00 (CET)
Date & Time tt [°C] td [°C] tt 5cm [°C] tt -5cm [°C] tt -20cm [°C] tt -100cm [°C] ff [km/h] ff [knt] fx [km/h] fx [knt] dd vv [km] sd [min] rr [mm]
09.12.2019 21:00:00 0,0 -0,3 0,0 0,5 1,7 4,6 40 21 69 37 NNW 0,4 0 1,1
09.12.2019 20:00:00 0,0 -0,3 -0,1 0,5 1,8 4,6 35 19 56 30 NNW 3,5 0 1,9
09.12.2019 19:00:00 0,1 -0,2 0,0 0,5 1,8 4,6 31 17 45 25 NW 0,3 0 2,6
09.12.2019 18:00:00 1,1 0,7 0,8 0,6 1,9 4,7 32 17 49 26 WNW 8 0 0,2
09.12.2019 17:00:00 0,9 0,5 0,5 0,6 2,0 4,7 28 15 43 23 WNW 0,2 0 1,0
09.12.2019 16:00:00 1,0 0,7 0,6 0,6 2,1 4,7 29 16 46 25 W 0,1 0 0,2
09.12.2019 15:00:00 0,7 0,4 0,1 0,7 2,2 4,7 29 16 53 29 W 0,1 0 0,0
09.12.2019 14:00:00 0,1 -0,2 0,0 0,8 2,3 4,7 32 18 58 31 W 0,2 0 1,7
09.12.2019 13:00:00 0,4 0,0 0,0 1,0 2,3 4,7 33 18 53 29 WSW 0,3 0 2,9
09.12.2019 12:00:00 0,7 0,3 0,1 1,8 2,3 4,7 33 18 62 33 SW 0,8 0 0,6
09.12.2019 11:00:00 1,3 0,8 1,3 1,7 2,4 4,7 45 24 64 35 SW 1,3 0 0,5
09.12.2019 10:00:00 1,3 0,9 1,2 1,6 2,4 4,7 34 19 60 33 SW 0,7 0 0,4
09.12.2019 09:00:00 1,2 0,5 0,9 1,5 2,4 4,7 37 20 64 35 SSW 8 0 0,0
09.12.2019 08:00:00 1,2 0,3 0,9 1,5 2,5 4,7 38 21 66 35 SSW 47 0 0,0
09.12.2019 07:00:00 1,2 0,4 0,9 1,5 2,5 4,7 40 22 59 32 SSW 26 0 0,0
09.12.2019 06:00:00 1,1 0,1 0,6 1,6 2,6 4,7 39 21 60 32 SW 34 0 0,0
09.12.2019 05:00:00 1,3 0,1 0,9 1,6 2,7 4,7 35 19 67 36 SW 33 0 0,0
09.12.2019 04:00:00 1,2 0,0 1,0 1,7 2,8 4,6 39 21 62 34 SW 34 0 0,0
09.12.2019 03:00:00 1,2 -0,2 0,9 1,8 2,9 4,6 33 18 58 31 WSW 33 0 0,0
09.12.2019 02:00:00 1,3 0,0 1,0 2,0 2,9 4,6 36 19 72 39 WSW 38 0 0,0
09.12.2019 01:00:00 1,7 0,4 1,2 2,3 3,0 4,6 41 22 82 45 WSW 26 0 0,0
09.12.2019 00:00:00 1,8 1,3 1,7 2,5 3,1 4,6 39 21 75 41 WSW 12 0 0,2
08.12.2019 23:00:00 2,5 1,6 2,2 2,7 3,1 4,6 42 23 68 37 SW 21 0 0,1
08.12.2019 22:00:00 2,6 1,9 2,3 2,8 3,2 4,6 36 20 66 35 SW 6 0 0,0
08.12.2019 21:00:00 2,6 1,7 2,4 2,8 3,2 4,6 31 17 50 27 WSW 20 0 0,0
08.12.2019 20:00:00 2,7 1,9 2,4 3,1 3,3 4,6 30 16 50 27 WSW 17 0 0,0
08.12.2019 19:00:00 3,0 2,2 2,8 3,3 3,3 4,6 40 21 68 37 W 14 0 0,0
08.12.2019 18:00:00 3,2 2,5 2,9 3,6 3,3 4,6 32 17 61 33 WSW 25 0 0,0
08.12.2019 17:00:00 3,7 2,6 3,3 4,0 3,2 4,6 41 22 79 43 W 34 0 0,3
08.12.2019 16:00:00 5,4 5,1 5,3 4,4 3,1 4,6 38 20 66 35 W 0,5 0 1,6
08.12.2019 15:00:00 5,5 5,3 5,3 4,2 2,9 4,6 40 21 74 40 SW 0,5 0 0,2
08.12.2019 14:00:00 5,2 4,9 5,1 4,1 2,8 4,6 39 21 72 39 SW 1,3 0 0,2
08.12.2019 13:00:00 4,9 4,7 4,8 3,9 2,7 4,6 42 23 73 39 SW 0,4 0 0,2
08.12.2019 12:00:00 4,8 4,6 4,7 3,7 2,5 4,6 50 27 77 42 SW 0,2 0 0,0
08.12.2019 11:00:00 4,5 4,2 4,4 3,4 2,4 4,6 44 24 72 39 SW 0,2 0 0,5
08.12.2019 10:00:00 4,3 3,8 4,2 3,0 2,3 4,6 53 29 81 44 SW 14 0 0,0
08.12.2019 09:00:00 3,9 3,3 3,7 2,6 2,2 4,6 39 21 68 37 SW 38 0 0,0
08.12.2019 08:00:00 3,5 2,9 3,3 2,4 2,1 4,6 44 24 66 36 SW 38 0 0,0
08.12.2019 07:00:00 3,1 2,2 2,9 2,2 2,1 4,6 37 20 66 36 SW 51 0 0,0
08.12.2019 06:00:00 2,7 1,9 2,5 2,1 2,1 4,6 44 24 69 37 SW 32 0 0,0
08.12.2019 05:00:00 2,5 1,6 2,3 2,0 2,0 4,6 47 26 67 36 SW 27 0 0,0
08.12.2019 04:00:00 2,3 1,3 2,1 1,9 2,0 4,6 44 24 69 38 SW 35 0 0,0
08.12.2019 03:00:00 2,2 1,1 2,0 1,9 2,0 4,6 45 25 63 34 SW 53 0 0,0
08.12.2019 02:00:00 2,1 1,5 1,9 1,9 2,0 4,6 39 21 55 30 WSW 27 0 0,0
08.12.2019 01:00:00 2,1 1,7 1,9 1,9 1,9 4,6 36 19 57 31 WSW 1,1 0 0,0
08.12.2019 00:00:00 2,2 1,9 2,1 1,8 1,9 4,6 34 18 53 29 WSW 0,3 0 0,0
07.12.2019 23:00:00 1,9 1,5 1,7 1,7 1,9 4,6 35 19 50 27 WSW 1,1 0 0,0
07.12.2019 22:00:00 1,7 1,1 1,6 1,7 1,9 4,6 29 16 45 24 WSW 18 0 0,0
07.12.2019 21:00:00 1,8 1,4 1,7 1,8 1,9 4,6 30 16 47 26 WSW 12 0 0,0
07.12.2019 20:00:00 1,9 1,5 1,7 1,9 1,8 4,6 27 15 45 24 WSW 7 0 0,0
07.12.2019 19:00:00 2,1 1,7 2,0 2,0 1,8 4,6 31 17 47 26 W 7 0 0,0
07.12.2019 18:00:00 2,4 2,1 2,2 2,0 1,7 4,6 31 17 52 28 WSW 0,2 0 0,4
07.12.2019 17:00:00 2,4 2,1 2,3 2,0 1,7 4,6 34 18 54 29 WSW 0,3 0 0,0
07.12.2019 16:00:00 2,4 2,0 2,3 2,1 1,6 4,6 39 21 63 34 W 6 0 0,1
07.12.2019 15:00:00 2,6 2,3 2,6 2,1 1,5 4,6 33 18 60 32 W 0,4 0 0,4
07.12.2019 14:00:00 2,6 2,3 2,5 1,9 1,4 4,6 38 20 69 37 W 0,3 0 0,9
07.12.2019 13:00:00 2,9 2,6 2,9 1,5 1,3 4,6 30 16 57 31 W 0,2 0 0,8
07.12.2019 12:00:00 2,9 2,7 2,8 1,1 1,2 4,6 32 17 54 29 W 0,1 0 0,7
07.12.2019 11:00:00 2,9 2,6 2,8 0,8 1,1 4,6 32 18 61 33 W 0,9 0 0,5
07.12.2019 10:00:00 3,1 2,9 2,9 0,5 1,0 4,6 29 16 60 32 W 0,1 0 1,0
07.12.2019 09:00:00 3,1 2,9 2,9 0,3 1,0 4,5 34 19 61 33 W 0,2 0 0,5
07.12.2019 08:00:00 3,1 2,8 2,9 0,2 1,0 4,5 37 20 67 36 W 0,2 0 0,7
07.12.2019 07:00:00 3,2 3,0 3,0 0,2 0,9 4,4 38 20 69 37 W 0,6 0 0,2
07.12.2019 06:00:00 3,3 3,1 3,0 0,1 0,9 4,2 37 20 69 37 W 0,2 0 0,8
07.12.2019 05:00:00 3,2 2,9 2,9 0,1 0,9 4,1 40 22 76 41 W 0,1 0 1,6
07.12.2019 04:00:00 3,1 2,9 2,7 0,1 1,0 4,2 41 22 76 41 W 0,2 0 0,8
07.12.2019 03:00:00 2,9 2,6 2,4 0,1 1,0 4,4 40 22 65 35 WSW 0,2 0 0,7
07.12.2019 02:00:00 2,6 2,3 2,1 0,1 1,0 4,5 38 21 70 38 WSW 0,1 0 0,1
07.12.2019 01:00:00 2,1 1,8 1,7 0,1 1,0 4,7 39 21 67 36 WSW 0,2 0 0,2
07.12.2019 00:00:00 2,0 1,7 1,5 0,1 1,0 4,8 39 21 59 32 WSW 0,1 0 0,0
06.12.2019 23:00:00 1,5 1,2 1,1 0,1 1,0 4,9 36 20 61 33 SW 0,2 0 1,2
06.12.2019 22:00:00 1,5 1,2 1,1 0,1 1,0 5,0 37 20 59 32 SW 0,2 0 2,2
06.12.2019 21:00:00 1,4 1,1 1,1 0,1 1,0 5,0 34 19 57 31 SW 0,3 0 1,1
06.12.2019 20:00:00 1,4 1,0 1,0 0,0 1,0 5,0 39 21 61 33 SW 0,2 0 0,0
06.12.2019 19:00:00 1,3 1,0 1,0 0,0 1,0 5,0 38 21 62 34 SW 0,1 0 0,1
06.12.2019 18:00:00 1,3 1,0 1,0 0,0 1,0 5,0 36 19 66 35 SW 0,1 0 0,7
06.12.2019 17:00:00 0,9 0,6 0,7 0,0 1,0 5,0 34 19 59 32 SW 0,1 0 0,4
06.12.2019 16:00:00 0,8 0,4 0,7 0,0 1,0 5,0 34 18 49 26 SW 0,1 0 0,1
06.12.2019 15:00:00 0,4 0,0 0,0 0,0 1,0 5,0 30 16 51 27 SW 0,1 0 0,2
06.12.2019 14:00:00 -0,3 -1,4 -0,4 0,0 1,0 5,0 38 20 55 30 SW 14 0 0,0
06.12.2019 13:00:00 -1,1 -3,0 -1,4 0,0 1,0 5,0 30 16 50 27 SW 35 0 0,0
06.12.2019 12:00:00 -1,1 -3,9 -1,7 0,0 1,0 5,0 29 16 59 32 SW 43 0 0,1
06.12.2019 11:00:00 -1,3 -4,3 -2,0 0,0 1,0 5,1 35 19 49 26 SW 42 0 0,0
06.12.2019 10:00:00 -2,4 -3,9 -2,2 0,0 1,0 5,1 28 15 44 24 SW 15 0 0,1
06.12.2019 09:00:00 -2,6 -4,3 -2,4 0,0 1,0 5,1 33 18 46 25 SW 11 0 0,1
06.12.2019 08:00:00 -1,5 -3,2 -1,7 0,0 1,0 5,1 33 18 50 27 SW 18 0 0,0
06.12.2019 07:00:00 -1,0 -1,7 -1,2 0,0 1,0 5,1 33 18 48 26 WSW 12 0 0,0
06.12.2019 06:00:00 -1,4 -1,8 -1,5 0,0 1,0 5,1 31 17 42 23 WSW 0,7 0 0,0
06.12.2019 05:00:00 -2,3 -2,8 -2,4 0,0 1,1 5,1 33 18 46 25 WSW 0,3 0 0,0
06.12.2019 04:00:00 -2,3 -4,1 -2,8 0,0 1,1 5,1 35 19 47 26 WSW 22 0 0,0
06.12.2019 03:00:00 -2,8 -6,3 -4,0 0,0 1,1 5,1 32 17 44 24 WSW 34 0 0,0
06.12.2019 02:00:00 -2,4 -6,6 -3,7 0,1 1,1 5,1 31 17 45 25 WSW 37 0 0,0
06.12.2019 01:00:00 -1,5 -6,8 -2,9 0,1 1,1 5,1 33 18 52 28 WSW 47 0 0,0
06.12.2019 00:00:00 -1,0 -6,8 -2,5 0,1 1,1 5,1 36 19 50 27 WSW 45 0 0,0
05.12.2019 23:00:00 -1,4 -6,7 -3,0 0,1 1,1 5,1 34 18 45 25 WSW 38 0 0,0
05.12.2019 22:00:00 -2,1 -4,6 -3,3 0,2 1,1 5,1 31 17 40 21 WSW 20 0 0,0
05.12.2019 21:00:00 -1,5 -4,3 -2,8 0,2 1,1 5,1 31 17 41 22 WSW 23 0 0,0
05.12.2019 20:00:00 -1,4 -5,0 -2,7 0,2 1,2 5,1 27 15 40 22 WSW 34 0 0,0
05.12.2019 19:00:00 -1,4 -4,6 -2,9 0,2 1,2 5,1 25 14 33 18 WSW 27 0 0,0
05.12.2019 18:00:00 -1,1 -4,6 -2,9 0,2 1,2 5,1 25 13 30 16 WSW 29 0 0,0
05.12.2019 17:00:00 -0,3 -4,2 -2,2 0,2 1,2 5,1 22 12 27 15 WSW 41 0 0,0
05.12.2019 16:00:00 1,0 -3,8 -0,8 0,2 1,2 5,1 19 10 27 15 WSW 44 34 0,0
05.12.2019 15:00:00 2,6 -4,8 1,6 0,2 1,2 5,1 19 10 30 16 WSW 48 60 0,0
05.12.2019 14:00:00 2,7 -3,3 2,1 0,2 1,2 5,1 20 11 34 18 WSW 47 60 0,0
05.12.2019 13:00:00 2,8 -4,4 2,1 0,2 1,2 5,2 16 9 30 16 WSW 65 60 0,0
05.12.2019 12:00:00 3,1 -4,5 2,4 0,2 1,2 5,2 19 10 29 16 WSW 75 60 0,0
05.12.2019 11:00:00 0,8 -4,3 1,6 0,2 1,2 5,2 21 11 31 17 WNW 75 60 0,0
05.12.2019 10:00:00 0,2 -4,2 -0,1 0,2 1,2 5,2 23 12 30 16 W 40 40 0,0
05.12.2019 09:00:00 0,7 -7,0 -0,7 0,2 1,2 5,2 20 11 35 19 W 75 0 0,0
05.12.2019 08:00:00 -1,0 -5,7 -2,7 0,2 1,2 5,2 19 10 30 16 W 36 0 0,0
05.12.2019 07:00:00 -1,7 -5,0 -2,9 0,2 1,2 5,2 27 15 32 18 WSW 38 0 0,0
05.12.2019 06:00:00 -1,4 -4,9 -2,8 0,2 1,2 5,2 22 12 26 14 SW 45 0 0,0
05.12.2019 05:00:00 -0,8 -5,1 -2,5 0,2 1,2 5,2 17 9 21 11 SW 44 0 0,0
05.12.2019 04:00:00 -0,6 -5,3 -2,3 0,2 1,2 5,2 16 9 19 11 SSW 51 0 0,0
05.12.2019 03:00:00 0,1 -5,9 -1,4 0,2 1,2 5,2 16 9 23 12 SW 54 0 0,0
05.12.2019 02:00:00 0,0 -6,2 -1,7 0,2 1,2 5,2 15 8 27 14 SSW 75 0 0,0
05.12.2019 01:00:00 0,0 -5,4 -1,4 0,3 1,2 5,2 23 12 31 17 S 55 0 0,0
05.12.2019 00:00:00 0,6 -6,1 -0,9 0,3 1,2 5,2 22 12 31 17 S 59 0 0,0
04.12.2019 23:00:00 0,9 -6,3 -0,8 0,3 1,3 5,2 23 12 31 17 SSW 75 0 0,0
04.12.2019 22:00:00 2,1 -9,4 0,0 0,3 1,3 5,2 24 13 29 16 S 75 0 0,0
04.12.2019 21:00:00 3,0 -11,1 0,8 0,3 1,3 5,2 27 14 34 18 S 75 0 0,0
04.12.2019 20:00:00 2,5 -6,8 0,6 0,4 1,3 5,2 29 16 35 19 SSE 75 0 0,0
04.12.2019 19:00:00 2,1 -5,8 0,1 0,4 1,3 5,2 28 15 32 17 SSE 75 0 0,0
04.12.2019 18:00:00 2,0 -6,6 0,1 0,4 1,3 5,3 22 12 29 16 SSE 75 0 0,0
04.12.2019 17:00:00 1,6 -7,6 -0,4 0,3 1,3 5,3 25 14 28 15 SSE 74 0 0,0
04.12.2019 16:00:00 2,6 -4,4 0,4 0,4 1,3 5,3 18 10 27 14 SE 75 34 0,0
04.12.2019 15:00:00 2,4 -2,1 1,6 0,4 1,3 5,3 19 10 27 15 SSE 75 60 0,0
04.12.2019 14:00:00 2,6 -1,0 2,4 0,4 1,3 5,3 16 9 24 13 SSE 64 60 0,0
04.12.2019 13:00:00 1,5 -1,6 1,0 0,4 1,2 5,3 20 11 31 17 S 68 60 0,0
04.12.2019 12:00:00 1,8 -3,1 1,0 0,4 1,2 5,3 26 14 29 16 S 69 60 0,0
04.12.2019 11:00:00 -0,9 -2,0 -1,1 0,3 1,2 5,3 19 10 24 13 S 1,2 60 0,0
04.12.2019 10:00:00 -1,7 -2,2 -1,8 0,3 1,2 5,3 17 9 22 12 S 0,2 29 0,0
04.12.2019 09:00:00 -2,1 -2,6 -2,6 0,3 1,2 5,3 18 10 20 11 S 0,1 0 0,0
04.12.2019 08:00:00 -1,8 -2,6 -2,8 0,3 1,2 5,3 16 9 19 10 S 0,1 0 0,0
04.12.2019 07:00:00 1,0 -4,5 -3,5 0,3 1,2 5,3 9 5 10 5 ESE 75 0 0,0
04.12.2019 06:00:00 -0,5 -3,3 -3,1 0,3 1,2 5,3 4 2 11 6 SE 75 0 0,0
04.12.2019 05:00:00 -1,6 -2,1 -2,3 0,3 1,2 5,3 8 4 13 7 SSW 0,1 0 0,0
04.12.2019 04:00:00 -1,4 -1,9 -2,3 0,3 1,2 5,3 11 6 16 9 SW 0,1 0 0,0
04.12.2019 03:00:00 -1,0 -1,4 -1,6 0,3 1,2 5,3 13 7 19 10 SSW 0,1 0 0,0
04.12.2019 02:00:00 -0,9 -1,3 -1,3 0,3 1,2 5,3 16 8 22 12 SW 0,1 0 0,0
04.12.2019 01:00:00 -0,6 -1,0 -0,8 0,3 1,2 5,4 18 10 21 12 SW 0,1 0 0,0
04.12.2019 00:00:00 -0,3 -0,7 -0,8 0,3 1,2 5,4 18 10 25 13 SW 1,0 0 0,0
03.12.2019 23:00:00 0,0 -0,3 -0,3 0,3 1,2 5,4 21 11 26 14 SW 0,1 0 0,0
03.12.2019 22:00:00 0,2 -0,2 0,1 0,3 1,2 5,4 22 12 28 15 SW 0,7 0 0,0
03.12.2019 21:00:00 0,4 0,0 0,2 0,3 1,3 5,4 16 9 25 13 SW 0,2 0 0,0

tt = Température de l'air
td = dewpoint
tt 5cm = Température de l'air 5cm
tt -5cm = Température de l'air -5cm
tt -20cm = Température de l'air -20cm
tt -100cm = Température de l'air -100cm
ff = Vitesse du vent
fx = gusts
dd = Direction du vent
vv = visibility
sd = Ensoleillement
rr = Quantités de précipitations

stations d'obs. à proximité